Location: Klickitat County Star Party
(45.8642°N, 120.6771°W)
Time: 13:54:29
(UTC-07:00)

SO-50 - Pass Details

Date: 03 June 2019
Orbit: 586 x 700 km, 64.6° (Epoch: 17 June)

Event Time Altitude Azimuth Distance (km) Brightness Sun altitude
Rises 02:16:56 0° 307° (NW) 3,068 ? -19.7°
Reaches altitude 10° 02:20:21 10° 283° (WNW) 2,128 ? -19.5°
Enters shadow 02:21:51 13° 265° (W) 1,904 ? -19.4°
